Location: Unspecified
(0.0000°N, 0.0000°E)
Time: 07:01:07
(UTC+00:00)

A-11 Canister half - All Passes

Search period start: 03 October 2023 00:00
Search period end: 13 October 2023 00:00
Orbit: 1515 x 1684 km, 47.2° (Epoch: 02 October)

Date Brightness Start Highest point End Pass type
(mag) Time Alt. Az. Time Alt. Az. Time Alt. Az.
03 Oct - 00:34:41 10° N 00:41:50 25° NE 00:49:00 10° E night (unlit)
03 Oct - 02:37:24 10° NW 02:46:33 66° SW 02:56:00 10° SSE visible
03 Oct - 04:49:47 10° WSW 04:52:03 11° SW 04:54:21 10° SSW visible
03 Oct - 13:23:22 10° SSW 13:33:18 58° SE 13:43:00 10° NE daylight
03 Oct - 15:29:36 10° WSW 15:38:09 32° NW 15:46:33 10° N daylight
04 Oct - 00:12:05 10° N 00:18:50 22° NE 00:25:37 10° E night (unlit)
04 Oct - 02:14:24 10° NW 02:23:36 72° SW 02:33:05 10° SSE visible
04 Oct - 04:25:28 10° WSW 04:29:00 12° SW 04:32:34 10° SSW visible
04 Oct - 13:00:29 10° SSW 13:10:19 53° SE 13:19:55 10° NE daylight
04 Oct - 15:06:19 10° WSW 15:15:10 35° NW 15:23:50 10° NNE daylight
04 Oct - 23:49:32 10° N 23:55:52 20° NE 00:02:12 10° E night (unlit)
05 Oct - 01:51:26 10° NW 02:00:41 78° SW 02:10:10 10° SE visible
05 Oct - 04:01:32 10° WSW 04:05:56 14° SW 04:10:25 10° SSW visible
05 Oct - 12:37:37 10° SSW 12:47:19 49° SE 12:56:49 10° ENE daylight
05 Oct - 14:43:05 10° WSW 14:52:11 38° NW 15:01:06 10° NNE daylight
05 Oct - 23:27:02 10° N 23:32:52 18° NE 23:38:42 10° E night (unlit)
06 Oct - 01:28:30 10° NW 01:37:45 85° SW 01:47:13 10° SE visible
06 Oct - 03:37:49 10° W 03:42:54 16° SW 03:48:05 10° S visible
06 Oct - 12:14:47 10° SSW 12:24:20 45° SE 12:33:41 10° ENE daylight
06 Oct - 14:19:53 10° WSW 14:29:11 42° NW 14:38:19 10° NNE daylight
06 Oct - 23:04:36 10° N 23:09:52 16° NE 23:15:07 10° E night (unlit)
07 Oct - 01:05:34 10° NW 01:14:49 89° ENE 01:24:16 10° SE visible
07 Oct - 03:14:14 10° W 03:19:53 17° SW 03:25:39 10° S visible
07 Oct - 11:51:58 10° SSW 12:01:19 41° SE 12:10:32 10° ENE daylight
07 Oct - 13:56:42 10° WSW 14:06:12 45° NW 14:15:32 10° NNE daylight
07 Oct - 22:42:16 10° NNE 22:46:51 14° NE 22:51:25 10° ENE night (unlit)
08 Oct - 00:42:39 10° NW 00:51:53 82° NE 01:01:18 10° SE visible
08 Oct - 02:50:44 10° W 02:56:51 19° SW 03:03:08 10° S visible
08 Oct - 11:29:09 10° SSW 11:38:19 38° SE 11:47:20 10° ENE daylight
08 Oct - 13:33:32 10° WSW 13:43:12 50° NW 13:52:43 10° NNE daylight
08 Oct - 22:20:06 10° NNE 22:23:50 13° NE 22:27:32 10° ENE night (unlit)
09 Oct - 00:19:45 10° NW 00:28:58 76° NE 00:38:19 10° SE night (unlit)
09 Oct - 02:27:18 10° W 02:33:51 21° SW 02:40:34 10° S visible
09 Oct - 11:06:22 10° SSW 11:15:19 35° SE 11:24:08 10° ENE daylight
09 Oct - 13:10:25 10° SW 13:20:14 54° NW 13:29:53 10° NNE daylight
09 Oct - 21:58:15 10° NNE 22:00:48 11° NE 22:03:19 10° ENE night (unlit)
09 Oct - 23:56:51 10° NNW 00:06:01 70° NE 00:15:19 10° SE night (unlit)
10 Oct - 02:03:56 10° W 02:10:52 23° SW 02:17:57 10° S visible
10 Oct - 10:43:38 10° S 10:52:18 32° SE 11:00:52 10° ENE daylight
10 Oct - 12:47:18 10° SW 12:57:14 59° NW 13:07:02 10° NNE daylight
10 Oct - 23:33:59 10° NNW 23:43:06 64° NE 23:52:17 10° SE night (unlit)
11 Oct - 01:40:37 10° W 01:47:53 26° SW 01:55:17 10° S visible
11 Oct - 10:20:54 10° S 10:29:17 29° SE 10:37:34 10° ENE daylight
11 Oct - 12:24:13 10° SW 12:34:15 64° NW 12:44:09 10° NNE daylight
11 Oct - 14:37:30 10° WNW 14:39:48 11° NW 14:42:07 10° NNW daylight
11 Oct - 23:11:09 10° NNW 23:20:10 59° NE 23:29:15 10° SE night (unlit)
12 Oct - 01:17:21 10° WNW 01:24:53 28° SW 01:32:36 10° S visible
12 Oct - 09:58:13 10° S 10:06:15 26° SE 10:14:15 10° E daylight
12 Oct - 12:01:10 10° SW 12:11:16 69° NW 12:21:16 10° NNE daylight
12 Oct - 14:12:58 10° WNW 14:16:44 12° NW 14:20:29 10° NNW daylight
12 Oct - 22:48:18 10° NNW 22:57:14 53° NE 23:06:12 10° SE night (unlit)
